FLOCK 2K-22

Last updated on Wed Feb 14 2018 16:20:52 GMT+0000 (Coordinated Universal Time)

1 42861U 17042AN 18045.20996770 .00007116 00000-0 20735-3 0 9998 2 42861 96.9931 307.9793 0010119 186.6055 173.5058 15.35619462 32759
UTC large
Height (km)
Speed (km/s)
/
Latitude / Longitude
Inclination (degrees)
Orbital Period (minutes)
Azimuth
Elevation
Range (km)
Doppler Factor

Next 0 passes for location: London (51.5072 / 0.1276)

Sorry there are no passes over London.